�N����,����,�~����,�C��,���x,�C��,����,���ϕ���,�ő�u�ԕ���,�ő厞����,���˗�,�I�_���x,�n�����x,�ő啗���N��,DTYPE
"20/04/23","00:10",0.0,5.3,82.1,1006.9,303.8,2.5,4.0,319.6,0.00,2.5,12.1,"00:09:52",1
"20/04/23","00:20",0.0,5.4,82.7,1006.4,327.4,3.1,5.8,339.5,0.00,2.7,12.2,"00:16:36",1
"20/04/23","00:30",0.0,5.6,83.0,1006.4,320.4,3.7,4.9,325.1,0.00,3.0,12.2,"00:24:40",1
"20/04/23","00:40",0.0,5.5,83.1,1006.2,305.3,2.5,4.0,334.9,0.00,2.9,12.2,"00:33:04",1
"20/04/23","00:50",0.0,5.1,83.3,1006.2,282.2,2.0,2.9,266.9,0.00,2.5,12.1,"00:49:22",1
"20/04/23","01:00",0.0,5.0,83.6,1006.4,280.8,2.2,3.3,267.8,0.00,2.5,12.3,"00:59:20",1
"20/04/23","01:10",0.0,4.9,83.9,1006.2,294.7,2.5,3.6,327.6,0.00,2.5,11.9,"01:02:10",1
"20/04/23","01:20",0.0,5.0,84.4,1005.7,305.6,3.0,3.5,311.1,0.00,2.6,11.8,"01:13:44",1
"20/04/23","01:30",0.0,5.2,84.7,1006.2,323.4,2.7,4.5,333.2,0.00,2.9,11.9,"01:27:22",1
"20/04/23","01:40",0.0,5.3,85.0,1005.7,319.5,3.6,4.9,325.4,0.00,3.0,12.0,"01:30:56",1
"20/04/23","01:50",0.0,5.3,85.1,1006.2,321.8,3.5,4.5,332.7,0.00,3.0,11.9,"01:45:28",1
"20/04/23","02:00",0.0,5.1,85.4,1006.0,325.5,3.4,5.0,326.8,0.00,2.9,11.8,"01:56:00",1
"20/04/23","02:10",0.0,5.1,85.7,1005.5,325.8,3.1,4.3,316.3,0.00,2.9,11.7,"02:03:04",1
"20/04/23","02:20",0.0,5.1,86.0,1005.7,330.3,2.5,4.7,335.4,0.00,3.0,11.8,"02:12:08",1
"20/04/23","02:30",0.0,5.3,86.1,1006.4,318.8,2.3,3.9,312.6,0.00,3.2,11.7,"02:22:32",1
"20/04/23","02:40",0.0,5.5,86.1,1006.4,313.2,1.7,2.8,338.1,0.00,3.4,11.5,"02:38:40",1
"20/04/23","02:50",0.0,5.5,85.9,1006.2,329.2,1.8,2.6,341.4,0.00,3.4,11.5,"02:46:08",1
"20/04/23","03:00",0.0,5.6,85.7,1006.2,323.9,2.5,3.2,336.2,0.00,3.4,11.7,"02:51:04",1
"20/04/23","03:10",0.0,5.6,85.6,1006.0,317.3,2.0,3.2,322.7,0.00,3.4,11.8,"03:01:12",1
"20/04/23","03:20",0.0,5.7,85.5,1006.2,303.9,1.8,2.6,323.3,0.00,3.5,11.7,"03:17:28",1
"20/04/23","03:30",0.0,5.9,85.2,1006.2,323.3,2.0,2.9,314.0,0.00,3.6,11.9,"03:20:08",1
"20/04/23","03:40",0.0,5.8,84.9,1006.2,308.0,1.8,3.3,319.9,0.00,3.5,11.5,"03:39:52",1
"20/04/23","03:50",0.0,5.7,84.6,1006.4,300.4,1.8,3.2,329.5,0.00,3.4,11.6,"03:42:48",1
"20/04/23","04:00",0.0,5.6,84.5,1006.4,313.0,2.0,2.8,326.5,0.00,3.2,11.8,"03:53:20",1
"20/04/23","04:10",0.0,5.6,84.4,1006.4,324.5,2.0,3.3,330.3,0.00,3.2,11.3,"04:03:54",1
"20/04/23","04:20",0.0,5.6,84.4,1006.4,300.3,1.6,2.8,312.7,0.00,3.2,11.7,"04:12:24",1
"20/04/23","04:30",0.0,5.6,84.4,1006.4,278.9,0.6,1.1,289.3,0.00,3.2,11.7,"04:22:40",1
"20/04/23","04:40",0.0,5.8,84.4,1006.2,328.7,1.1,2.0,314.7,0.00,3.4,11.6,"04:33:20",1
"20/04/23","04:50",0.0,6.0,84.3,1006.2,255.2,1.0,1.7,255.4,0.00,3.6,11.7,"04:46:08",1
"20/04/23","05:00",0.0,6.0,84.1,1006.4,265.1,1.3,2.0,274.2,0.00,3.6,11.4,"04:56:00",1
"20/04/23","05:10",0.0,5.9,84.0,1006.2,306.4,1.8,2.8,306.4,0.00,3.4,11.7,"05:05:20",1
"20/04/23","05:20",0.0,5.8,84.0,1006.4,319.2,2.1,3.6,334.2,0.00,3.3,11.7,"05:18:32",1
"20/04/23","05:30",0.0,5.8,84.2,1006.2,321.0,2.5,3.7,315.3,0.00,3.4,11.5,"05:28:32",1
"20/04/23","05:40",0.0,5.8,84.4,1006.4,319.8,2.3,3.3,304.0,0.00,3.4,11.6,"05:30:16",1
"20/04/23","05:50",0.0,6.2,84.2,1006.7,324.6,4.1,5.8,329.9,0.00,3.8,11.5,"05:42:08",1
"20/04/23","06:00",0.0,6.5,83.9,1006.4,323.8,2.8,4.5,314.0,0.02,4.0,11.4,"05:57:20",1
"20/04/23","06:10",0.0,7.2,83.1,1006.2,316.1,3.0,5.4,341.1,0.04,4.6,11.5,"06:07:12",1
"20/04/23","06:20",0.0,8.1,80.7,1006.7,311.3,3.4,5.8,317.4,0.04,5.0,11.6,"06:12:56",1
"20/04/23","06:30",0.0,8.4,78.2,1006.9,305.4,2.6,4.2,316.8,0.05,4.9,11.5,"06:29:20",1
"20/04/23","06:40",0.0,8.9,75.9,1006.9,314.8,1.8,3.2,324.3,0.06,4.9,11.6,"06:30:48",1
"20/04/23","06:50",0.0,9.3,73.9,1006.9,286.7,1.3,3.1,331.4,0.07,4.9,11.5,"06:40:56",1
"20/04/23","07:00",0.0,9.8,71.8,1007.4,265.8,1.2,2.8,313.4,0.09,5.0,11.7,"06:52:08",1
"20/04/23","07:10",0.0,10.4,70.0,1007.4,104.7,1.1,2.2,347.7,0.13,5.2,11.7,"07:09:44",1
"20/04/23","07:20",0.0,10.4,68.0,1007.4,110.9,2.0,4.3,114.0,0.16,4.8,11.9,"07:12:08",1
"20/04/23","07:30",0.0,11.4,67.8,1007.4,278.0,0.7,1.7,135.9,0.19,5.7,11.7,"07:21:36",1
"20/04/23","07:40",0.0,11.3,65.0,1007.4,221.9,1.1,2.8,246.8,0.22,5.0,11.9,"07:34:24",1
"20/04/23","07:50",0.0,11.8,63.9,1007.4,250.9,1.1,2.9,240.7,0.25,5.2,12.2,"07:42:48",1
"20/04/23","08:00",0.0,11.8,61.9,1007.4,255.6,1.6,4.2,227.8,0.25,4.8,12.2,"07:58:56",1
"20/04/23","08:10",0.0,12.1,60.3,1007.4,296.6,1.8,4.1,345.4,0.25,4.7,12.4,"08:04:24",1
"20/04/23","08:20",0.0,12.3,59.1,1007.4,292.5,2.0,4.3,309.1,0.28,4.6,12.5,"08:17:12",1
"20/04/23","08:30",0.0,12.3,57.7,1007.1,262.1,1.8,4.4,243.1,0.29,4.2,12.4,"08:24:16",1
"20/04/23","08:40",0.0,12.6,58.8,1007.4,261.2,1.8,4.1,296.1,0.31,4.8,12.6,"08:31:20",1
"20/04/23","08:50",0.0,12.7,56.7,1007.1,301.1,2.1,3.7,336.6,0.29,4.4,12.6,"08:43:04",1
"20/04/23","09:00",0.0,13.0,56.6,1006.7,271.0,1.6,4.3,343.8,0.33,4.6,12.8,"08:59:36",1
"20/04/23","09:10",0.0,12.8,58.5,1006.7,233.0,2.3,4.7,232.5,0.31,4.9,12.9,"09:06:40",1
"20/04/23","09:20",0.0,13.6,57.0,1006.4,274.0,2.1,4.7,290.7,0.37,5.3,13.1,"09:15:28",1
"20/04/23","09:30",0.0,13.5,55.6,1006.4,233.8,2.5,5.0,245.3,0.42,4.8,13.3,"09:21:04",1
"20/04/23","09:40",0.0,12.7,54.5,1006.0,257.0,1.8,3.6,246.6,0.10,3.8,13.1,"09:37:52",1
"20/04/23","09:50",0.0,12.7,56.5,1006.0,276.6,2.0,4.0,237.9,0.22,4.3,13.5,"09:41:28",1
"20/04/23","10:00",0.0,14.0,52.7,1006.0,303.8,2.6,5.0,337.3,0.47,4.5,13.6,"09:55:12",1
"20/04/23","10:10",0.0,13.4,49.1,1006.2,288.2,2.1,5.2,235.6,0.19,3.0,13.5,"10:08:08",1
"20/04/23","10:20",0.0,13.3,47.0,1006.0,274.4,2.1,4.7,314.7,0.19,2.3,13.6,"10:13:04",1
"20/04/23","10:30",0.0,13.7,46.8,1005.7,298.5,2.2,4.2,353.5,0.20,2.6,13.7,"10:24:56",1
"20/04/23","10:40",0.0,13.6,45.0,1005.5,282.7,2.5,5.5,331.6,0.16,1.9,13.6,"10:32:48",1
"20/04/23","10:50",0.0,13.7,44.2,1005.7,298.5,2.7,5.6,243.7,0.23,1.8,13.8,"10:44:24",1
"20/04/23","11:00",0.0,14.0,43.7,1005.2,302.0,3.0,6.0,328.7,0.26,1.9,13.8,"10:52:16",1
"20/04/23","11:10",0.0,15.2,43.1,1005.0,279.6,1.8,5.1,330.7,0.41,2.8,13.9,"11:04:40",1
"20/04/23","11:20",0.0,14.7,42.3,1005.0,319.9,3.5,8.3,332.6,0.30,2.1,14.0,"11:16:40",1
"20/04/23","11:30",0.0,14.4,42.3,1005.0,283.6,2.6,8.1,317.5,0.21,1.8,13.9,"11:24:16",1
"20/04/23","11:40",0.0,14.3,43.1,1004.5,302.5,2.0,5.9,340.5,0.12,2.0,14.0,"11:38:40",1
"20/04/23","11:50",0.0,13.9,43.4,1004.3,319.3,3.5,7.3,336.0,0.10,1.7,14.0,"11:41:04",1
"20/04/23","12:00",0.0,13.9,44.5,1004.8,301.2,2.0,4.5,315.6,0.07,2.1,14.1,"11:59:04",1
"20/04/23","12:10",0.0,13.9,45.6,1004.5,319.7,2.7,5.0,322.5,0.11,2.4,14.0,"12:00:24",1
"20/04/23","12:20",0.0,14.2,44.0,1004.5,323.1,3.1,7.1,346.4,0.19,2.2,14.1,"12:19:36",1
"20/04/23","12:30",0.0,14.3,45.8,1005.0,315.4,3.6,7.4,334.3,0.15,2.8,14.1,"12:20:48",1
"20/04/23","12:40",0.0,14.0,45.9,1004.5,329.4,3.9,7.2,341.6,0.15,2.6,14.2,"12:36:40",1
"20/04/23","12:50",0.0,14.3,46.4,1004.5,324.3,4.0,7.1,332.7,0.24,3.0,13.9,"12:48:40",1
"20/04/23","13:00",0.0,14.2,46.2,1004.3,329.6,4.0,7.0,338.7,0.22,2.9,13.9,"12:51:52",1
"20/04/23","13:10",0.0,14.2,46.5,1004.8,298.5,3.1,5.6,320.9,0.18,2.9,14.2,"13:06:56",1
"20/04/23","13:20",0.0,14.1,47.9,1004.8,313.2,2.7,4.9,311.0,0.14,3.3,14.0,"13:15:12",1
"20/04/23","13:30",0.0,14.4,49.0,1004.3,323.3,4.2,7.2,336.2,0.36,3.9,14.2,"13:24:40",1
"20/04/23","13:40",0.0,15.8,46.3,1004.5,331.1,2.7,6.4,332.9,0.61,4.3,14.2,"13:33:20",1
"20/04/23","13:50",0.0,16.8,45.2,1004.3,314.3,2.5,6.2,354.3,0.64,4.9,14.2,"13:49:20",1
"20/04/23","14:00",0.0,16.2,43.5,1004.1,337.5,3.1,6.2,347.2,0.47,3.8,14.3,"13:55:04",1
"20/04/23","14:10",0.0,15.5,43.5,1004.3,301.8,1.8,4.3,336.2,0.25,3.2,14.5,"14:02:56",1
"20/04/23","14:20",0.0,14.9,44.5,1004.3,307.3,2.7,5.7,347.7,0.18,3.0,14.4,"14:18:40",1
"20/04/23","14:30",0.0,14.3,45.0,1004.5,331.7,4.1,7.7,329.9,0.19,2.6,14.5,"14:22:32",1
"20/04/23","14:40",0.0,14.2,47.9,1004.3,337.2,3.5,6.7,342.8,0.20,3.4,14.5,"14:31:52",1
"20/04/23","14:50",0.0,14.8,46.6,1004.1,327.6,3.4,6.5,344.2,0.31,3.5,14.4,"14:41:28",1
"20/04/23","15:00",0.0,14.4,47.3,1004.1,321.6,3.1,5.0,323.7,0.15,3.4,14.6,"14:55:52",1
"20/04/23","15:10",0.0,14.7,49.1,1004.3,328.1,3.1,4.9,339.4,0.26,4.2,14.9,"15:01:04",1
"20/04/23","15:20",0.0,14.5,47.8,1004.5,327.7,3.2,6.0,318.7,0.23,3.6,14.4,"15:18:00",1
"20/04/23","15:30",0.0,14.0,50.3,1004.5,305.8,2.5,5.2,353.9,0.10,3.9,14.7,"15:20:08",1
"20/04/23","15:40",0.0,13.7,51.9,1004.3,300.2,2.6,4.5,309.5,0.08,4.0,14.7,"15:34:00",1
"20/04/23","15:50",0.0,13.0,54.3,1004.5,289.4,3.4,6.5,303.7,0.11,4.0,14.5,"15:49:36",1
"20/04/23","16:00",0.0,12.9,58.4,1004.8,292.5,3.4,4.9,324.1,0.18,5.0,14.7,"15:50:32",1
"20/04/23","16:10",0.0,14.0,56.6,1004.8,314.7,3.4,6.2,333.1,0.31,5.6,14.7,"16:01:20",1
"20/04/23","16:20",0.0,13.2,55.4,1004.8,324.0,3.6,6.4,326.7,0.11,4.5,14.6,"16:14:16",1
"20/04/23","16:30",0.0,12.9,56.0,1005.0,332.7,4.0,6.2,327.0,0.09,4.4,14.5,"16:22:24",1
"20/04/23","16:40",0.0,13.0,56.5,1005.0,329.4,3.7,5.7,329.6,0.08,4.6,14.7,"16:37:12",1
"20/04/23","16:50",0.0,12.6,56.3,1005.5,329.9,4.0,8.0,334.4,0.05,4.2,14.6,"16:43:04",1
"20/04/23","17:00",0.0,12.4,56.8,1005.2,333.2,4.1,8.2,327.4,0.05,4.1,14.6,"16:50:40",1
"20/04/23","17:10",0.0,12.3,57.0,1005.5,320.7,3.2,6.5,316.4,0.03,4.1,14.4,"17:05:28",1
"20/04/23","17:20",0.0,12.0,57.5,1005.2,332.4,4.7,9.7,325.4,0.02,3.9,14.2,"17:15:12",1
"20/04/23","17:30",0.0,11.9,58.8,1005.5,315.7,3.7,5.9,344.8,0.01,4.1,14.2,"17:24:40",1
"20/04/23","17:40",0.0,11.5,61.7,1005.7,327.4,4.0,7.4,332.6,0.00,4.5,14.2,"17:35:12",1
"20/04/23","17:50",0.0,11.0,65.4,1005.5,336.4,3.6,6.0,317.8,0.00,4.8,14.2,"17:41:44",1
"20/04/23","18:00",0.0,10.6,67.7,1006.2,336.1,3.6,5.8,347.2,0.00,4.9,14.1,"17:50:16",1
"20/04/23","18:10",0.0,10.4,68.6,1006.2,333.3,4.1,6.3,345.5,0.00,4.9,14.0,"18:09:04",1
"20/04/23","18:20",0.0,9.9,70.0,1006.2,328.1,5.4,8.1,325.4,0.00,4.7,13.9,"18:18:48",1
"20/04/23","18:30",0.0,9.5,71.7,1006.7,328.5,4.9,7.3,333.9,0.00,4.7,13.9,"18:28:00",1
"20/04/23","18:40",0.0,9.5,72.7,1006.9,323.7,3.9,5.5,320.0,0.00,4.9,13.8,"18:39:44",1
"20/04/23","18:50",0.0,9.3,73.5,1006.7,321.9,4.1,6.4,327.7,0.00,4.9,13.7,"18:40:08",1
"20/04/23","19:00",0.0,9.4,74.2,1006.9,323.4,3.9,5.9,325.0,0.00,5.1,13.6,"18:56:00",1
"20/04/23","19:10",0.0,9.4,74.8,1007.1,315.1,3.7,5.8,333.4,0.00,5.2,13.5,"19:04:48",1
"20/04/23","19:20",0.0,9.4,75.2,1006.9,326.2,4.4,6.6,345.5,0.00,5.3,13.4,"19:13:12",1
"20/04/23","19:30",0.0,9.3,75.4,1007.1,322.5,4.1,6.3,329.4,0.00,5.2,13.6,"19:27:20",1
"20/04/23","19:40",0.0,9.3,75.7,1007.4,322.5,3.9,7.0,340.3,0.00,5.3,13.4,"19:37:36",1
"20/04/23","19:50",0.0,9.2,76.0,1007.4,323.5,4.4,7.3,332.3,0.00,5.2,13.4,"19:47:44",1
"20/04/23","20:00",0.0,9.0,76.5,1007.8,317.3,3.9,6.4,318.3,0.00,5.1,13.4,"19:51:12",1
"20/04/23","20:10",0.0,8.7,76.8,1007.8,326.6,4.4,6.4,329.0,0.00,4.9,13.0,"20:08:48",1
"20/04/23","20:20",0.0,8.9,76.6,1008.1,325.0,4.9,7.5,339.8,0.00,5.1,13.2,"20:10:56",1
"20/04/23","20:30",0.0,8.6,76.7,1007.8,311.8,3.0,4.8,320.5,0.00,4.8,13.0,"20:24:16",1
"20/04/23","20:40",0.0,8.3,76.7,1008.1,293.1,2.0,3.4,309.9,0.00,4.5,12.8,"20:30:32",1
"20/04/23","20:50",0.0,8.1,76.8,1008.1,287.6,1.3,2.2,296.2,0.00,4.3,13.0,"20:45:12",1
"20/04/23","21:00",0.0,8.0,76.6,1008.1,228.6,1.0,1.9,255.3,0.00,4.2,12.9,"20:57:44",1
"20/04/23","21:10",0.0,8.1,77.1,1008.6,238.8,1.3,2.5,235.2,0.00,4.4,12.7,"21:03:28",1
"20/04/23","21:20",0.0,7.9,77.0,1008.3,249.5,1.2,2.1,250.3,0.00,4.2,12.8,"21:19:52",1
"20/04/23","21:30",0.0,7.8,77.0,1008.3,284.8,1.6,2.0,307.1,0.00,4.1,12.8,"21:28:16",1
"20/04/23","21:40",0.0,7.5,77.2,1008.3,317.0,2.1,3.1,326.1,0.00,3.8,12.6,"21:34:24",1
"20/04/23","21:50",0.0,7.2,78.1,1008.3,333.3,1.8,2.4,341.5,0.00,3.7,12.6,"21:45:20",1
"20/04/23","22:00",0.0,6.7,79.0,1008.6,305.3,1.7,2.9,333.9,0.00,3.4,12.5,"21:50:02",1
"20/04/23","22:10",0.0,6.4,80.3,1008.6,323.7,2.0,2.4,331.0,0.00,3.3,12.6,"22:02:16",1
"20/04/23","22:20",0.0,6.1,81.4,1008.3,287.8,1.6,2.4,316.2,0.00,3.2,12.5,"22:11:52",1
"20/04/23","22:30",0.0,6.0,82.2,1008.1,315.9,1.6,2.1,316.2,0.00,3.2,12.4,"22:20:40",1
"20/04/23","22:40",0.0,5.9,82.9,1008.3,317.8,1.7,2.9,316.1,0.00,3.3,12.3,"22:36:56",1
"20/04/23","22:50",0.0,5.9,83.6,1008.6,307.7,1.6,2.7,328.8,0.00,3.4,12.2,"22:42:32",1
"20/04/23","23:00",0.0,5.9,84.3,1008.6,300.9,1.2,2.1,317.1,0.00,3.5,12.2,"22:53:20",1
"20/04/23","23:10",0.0,5.9,84.9,1008.1,314.6,1.6,2.5,322.8,0.00,3.6,12.3,"23:03:54",1
"20/04/23","23:20",0.0,6.0,85.3,1008.3,296.2,1.3,1.8,322.3,0.00,3.8,12.1,"23:10:40",1
"20/04/23","23:30",0.0,6.2,85.7,1008.8,312.6,1.8,2.2,312.6,0.00,4.0,12.2,"23:24:00",1
"20/04/23","23:40",0.0,6.2,86.1,1008.6,306.1,1.3,1.9,312.6,0.00,4.1,12.1,"23:39:52",1
"20/04/23","23:50",0.0,6.3,86.4,1009.0,298.0,1.5,2.1,304.9,0.00,4.2,12.0,"23:40:24",1
"20/04/23","24:00",0.0,6.5,86.8,1009.0,263.1,1.0,1.6,244.3,0.00,4.5,12.1,"23:53:20",1
